Retour au catalogue

NOAA 16 DEB

ActifSSO
NORAD 42393·DEBRIS·🇺🇸 United States

Lancé Sep 21, 2000 depuis Vandenberg Space Force Base

Loading…

Prochains Passages (prochaines 24 heures)

TLE

FraisSource: Space-Track

Époque: Sep 14, 2026, 03:03 UTC

1 42393U 00055SM  26257.12726689  .00004496  00000-0  17612-2 0  9996
2 42393  98.9201 352.3638 0035424   2.1976 357.9355 14.29621482541966

Suivez NOAA 16 DEB en temps réel avec AllMySat

Download on the App Store